Lapse_Rate
3.1 3.1 3.9 4.3 4.5 4.4 4.7 4.9 4.7 4.7 4.5 4.7 4.6 4.9 5.4 6.0 5.5 5.6 5.6 5.5 5.1 5.0 5.6 5.8 5.6 5.7 5.7 5.9 5.9 6.3 6.4 6.4 6.3 6.1 5.9 5.8 5.7 5.7 5.7 5.8 6.0 5.9 5.4 5.0 4.8 4.9 5.1 6.2 6.2 6.1 6.3 6.4 6.4 6.5
3.1 3.4 3.7 4.4 4.4 4.5 4.6 4.7 4.7 4.6 4.4 4.5 4.1 4.1 4.3 4.8 5.3 4.9 5.0 4.4 4.6 5.2 5.4 5.6 5.7 6.1 6.1 6.0 6.3 6.4 6.5 6.4 6.3 6.1 6.0 5.8 5.7 5.6 5.5 5.5 5.9 6.0 5.9 5.7 5.8 6.1 6.1 6.1 6.2 6.3 6.4 6.4 6.6 6.7
3.1 3.4 3.6 3.8 4.1 4.3 4.5 4.6 4.5 4.4 4.4 4.5 4.1 3.9 3.9 3.7 3.9 3.6 4.0 4.2 5.0 5.1 5.4 5.8 5.8 5.9 6.2 6.6 6.5 6.6 6.4 6.5 6.3 6.1 5.9 5.7 5.5 5.3 5.2 5.4 5.5 5.6 5.7 5.8 5.7 6.1 6.0 6.0 6.1 6.4 6.4 6.5 6.7 6.7
3.5 3.6 3.8 3.8 3.8 4.2 4.6 4.7 4.4 4.2 4.4 4.3 3.9 3.9 3.7 3.2 3.0 3.0 3.2 4.0 5.6 5.8 5.7 6.0 5.8 6.0 6.4 6.4 6.8 6.7 6.6 6.5 6.3 6.2 5.9 5.7 5.5 5.3 5.3 5.1 5.1 5.5 5.6 5.6 5.9 6.2 6.1 6.2 6.2 6.3 6.5 6.6 6.7 6.7
3.5 3.6 3.7 3.9 3.8 4.0 4.4 4.6 4.5 4.3 4.4 4.1 3.9 3.8 3.3 3.1 3.0 3.2 4.0 4.4 5.6 5.9 6.0 6.3 5.9 6.2 6.4 6.5 6.7 6.6 6.3 6.3 6.3 6.0 5.8 5.8 5.8 5.5 5.5 5.2 5.7 5.6 5.7 5.6 5.8 6.0 6.1 6.3 6.2 6.3 6.5 6.7 6.8 6.9
3.6 3.9 3.7 3.8 3.7 3.8 4.2 4.3 4.5 4.4 4.4 4.1 3.7 3.4 3.2 2.8 2.9 3.9 4.7 5.0 5.5 5.9 6.0 6.4 6.3 6.3 6.4 6.3 6.7 6.5 6.4 6.3 6.1 6.0 6.1 6.1 5.9 5.4 5.2 5.4 5.8 5.5 5.5 5.6 5.8 6.3 6.4 6.3 6.3 6.4 6.5 6.8 6.9 7.0
3.7 3.7 3.6 3.4 3.6 3.9 4.2 4.4 4.5 4.3 4.4 4.2 3.4 3.2 2.8 2.8 3.4 4.4 4.9 5.1 5.3 5.8 6.0 6.4 6.3 6.2 6.4 6.4 6.6 6.8 6.6 6.2 6.1 6.2 6.3 5.9 5.7 5.5 5.3 5.4 5.8 5.0 4.8 5.1 5.5 6.3 6.6 6.7 6.7 6.7 6.6 6.9 6.9 6.9
3.9 3.7 3.6 3.5 3.8 4.0 4.5 4.6 4.4 4.4 4.4 4.1 3.3 2.7 2.3 3.2 4.6 4.9 4.9 5.5 5.4 5.9 6.3 6.2 6.0 6.2 6.2 6.3 6.4 6.6 6.4 6.5 6.4 6.2 6.1 6.0 5.6 5.4 5.1 5.8 5.5 5.8 5.7 5.8 6.3 6.5 6.7 6.9 7.0 6.8 6.7 6.7 6.9 7.0
3.9 3.7 3.7 3.7 4.0 4.0 4.7 4.9 4.5 4.3 4.4 3.9 3.3 2.5 2.7 4.2 4.9 5.0 5.7 5.6 5.7 5.9 6.2 6.1 6.1 6.1 6.4 6.4 6.3 6.4 6.4 6.5 6.3 6.2 6.3 6.0 5.8 5.5 5.9 5.6 5.7 5.9 6.0 6.2 6.4 6.5 6.6 6.8 7.0 6.8 6.8 6.5 6.6 6.7
4.0 3.7 3.7 3.8 4.0 4.2 4.7 4.9 4.4 4.4 4.4 4.1 3.5 2.9 4.5 5.4 5.4 6.0 6.0 5.9 5.9 6.0 6.1 6.2 6.2 6.2 6.3 6.2 6.3 6.4 6.4 6.3 6.4 6.4 6.1 5.9 6.5 6.1 5.7 5.7 6.1 6.3 6.2 6.1 6.2 6.3 6.6 6.8 6.7 6.6 6.5 6.5 6.2 6.3
4.1 3.8 3.8 4.2 4.1 4.2 4.7 4.7 4.5 4.6 4.4 4.2 4.1 4.2 5.7 5.4 6.0 6.2 6.2 6.3 6.0 6.2 6.4 6.4 6.3 6.1 6.2 6.3 6.4 6.4 6.5 6.3 6.5 6.6 6.5 6.4 6.4 6.1 6.0 6.2 6.1 6.2 6.5 6.4 6.3 6.3 6.2 6.2 6.4 6.4 6.6 6.6 6.4 6.3
4.2 4.1 4.3 4.4 4.3 4.4 4.8 4.8 4.5 4.8 4.6 4.5 4.3 4.8 5.6 5.6 6.0 6.4 6.4 6.1 6.2 6.3 6.0 6.0 6.4 6.4 6.3 6.3 6.4 6.4 6.6 6.8 6.7 6.7 6.9 6.9 6.4 6.3 6.4 6.5 6.6 6.5 6.3 6.6 6.5 6.7 6.3 6.2 6.0 6.1 6.4 6.5 6.4 6.2
4.3 4.2 4.5 4.5 4.4 4.5 4.8 4.8 4.7 4.9 4.8 4.8 4.9 5.6 5.8 5.8 5.7 5.7 5.7 5.9 5.8 6.1 6.1 6.0 6.3 6.3 6.2 6.3 6.3 6.5 6.6 6.4 6.8 6.7 6.9 6.7 6.8 6.8 6.7 6.6 6.6 6.7 6.0 5.9 6.7 6.5 6.3 5.9 5.8 5.9 5.9 6.0 6.1 6.1
4.5 4.6 4.6 4.6 4.5 4.4 4.8 4.9 4.8 5.1 5.0 5.0 5.2 5.8 6.0 6.2 6.0 5.9 6.0 6.1 6.0 5.9 6.1 6.0 5.9 5.9 6.1 6.2 6.2 6.3 6.5 6.6 6.5 6.6 7.0 6.9 7.1 7.1 7.0 6.8 6.6 6.6 6.2 6.3 6.4 6.3 6.3 5.9 5.8 6.0 6.0 6.1 6.0 6.0
4.9 4.8 4.8 4.7 4.6 4.5 4.9 4.9 4.8 5.1 5.1 5.1 5.4 5.7 6.1 6.3 6.2 6.2 6.3 6.0 5.8 5.7 5.7 6.0 6.0 6.1 6.1 6.2 6.3 6.4 6.6 6.6 6.9 6.9 6.8 6.9 7.1 7.2 7.1 7.0 6.9 6.6 6.5 6.2 6.4 6.2 6.2 6.2 5.9 6.0 6.1 6.1 6.0 6.0
5.1 5.0 5.0 4.9 4.9 4.6 4.9 5.2 5.0 5.0 5.3 5.2 5.2 5.5 6.0 6.2 6.2 6.2 6.1 6.0 5.7 5.8 5.9 5.9 6.2 6.3 6.3 6.4 6.3 6.5 6.6 7.0 6.9 6.9 7.0 7.1 7.2 7.2 7.3 7.3 7.0 7.0 6.8 6.6 6.5 6.7 6.4 6.4 6.5 6.4 6.4 6.4 6.4 6.3
5.3 5.5 5.0 4.8 4.9 4.9 4.6 5.2 5.3 5.2 5.5 5.5 5.5 5.6 5.6 5.9 6.3 6.3 6.3 6.4 6.2 6.0 5.9 6.1 6.2 6.1 6.1 6.2 6.3 6.5 6.9 7.4 7.1 7.1 7.1 7.2 7.3 7.3 7.5 7.7 7.7 7.4 7.1 7.2 7.1 7.0 6.8 6.7 6.6 6.5 6.7 6.7 6.6 6.3
5.9 5.5 5.1 4.9 4.8 4.9 4.5 5.0 5.2 5.3 5.6 5.9 5.8 5.7 5.6 5.6 5.6 6.2 6.4 6.3 6.4 6.4 6.2 6.3 6.2 5.9 6.2 6.1 6.5 7.2 7.4 7.2 7.1 7.1 7.0 7.1 7.1 7.2 7.3 7.4 7.7 8.0 7.9 7.6 7.6 7.5 7.4 7.0 6.7 6.7 6.6 6.6 6.4 6.2
6.0 5.5 5.3 5.0 4.9 4.8 4.5 4.8 5.0 5.4 5.6 5.9 5.8 5.7 5.8 5.7 5.7 5.6 5.6 6.1 6.4 6.4 6.3 6.4 6.2 6.4 6.4 6.3 6.6 6.7 6.7 6.8 6.8 6.8 6.8 6.8 6.7 6.9 7.0 7.3 7.4 7.5 7.7 7.9 7.8 7.8 7.7 7.6 7.1 6.8 6.6 6.4 6.3 6.1
6.0 5.4 5.1 5.0 5.0 4.7 4.6 4.7 5.0 5.1 5.7 5.9 5.9 5.7 5.6 5.7 5.8 5.9 5.9 6.0 5.9 5.8 5.9 6.1 6.6 6.5 6.4 6.4 6.4 6.3 6.4 6.3 6.3 6.5 6.6 6.6 6.7 6.7 6.7 6.8 7.1 7.4 7.5 7.5 7.5 7.6 7.6 7.4 6.9 6.6 6.7 6.6 6.4 6.4
6.0 5.5 5.2 5.0 4.8 4.7 4.9 4.9 5.0 5.1 5.7 5.6 5.8 5.8 5.8 5.6 5.6 5.7 5.8 5.9 6.0 6.0 6.1 6.2 6.2 6.0 6.0 6.0 6.1 6.1 5.9 6.0 6.1 6.1 6.1 6.3 6.3 6.3 6.4 6.4 6.6 6.9 7.2 7.2 7.4 7.5 7.5 7.4 7.0 6.6 6.6 6.6 6.5 6.4
6.0 5.6 5.2 4.8 4.7 4.8 5.0 5.1 5.2 5.3 5.2 5.7 5.7 5.7 5.7 5.6 5.6 5.6 5.6 5.9 6.3 6.1 6.1 6.2 6.1 6.1 6.1 6.0 5.9 5.7 5.7 5.7 5.7 5.8 5.8 5.7 5.7 6.0 6.2 6.2 6.1 6.2 6.5 6.8 6.9 7.2 7.4 7.3 7.1 6.7 6.5 6.6 6.5 6.3
5.8 5.5 5.2 4.9 4.7 4.8 5.1 5.2 5.2 5.3 5.2 5.5 5.5 5.5 5.5 5.5 5.4 5.4 5.4 6.1 6.2 5.8 5.9 5.9 5.9 6.0 6.0 6.0 5.8 5.6 5.5 5.4 5.2 5.0 4.9 4.9 4.9 5.0 5.3 5.6 5.8 5.7 5.8 6.0 6.4 6.4 6.9 7.0 7.1 6.9 6.6 6.6 6.5 6.4
5.7 5.4 5.1 5.0 4.8 4.9 5.2 5.3 5.5 5.5 5.2 5.1 5.3 5.4 5.5 5.5 5.5 5.3 5.6 6.2 5.8 5.6 5.7 5.6 5.6 5.6 5.5 5.4 5.2 5.1 5.1 5.1 5.1 5.1 5.0 5.0 4.9 4.7 4.5 4.6 4.8 5.0 5.2 5.7 5.8 6.0 6.1 6.4 6.5 7.0 6.6 6.6 6.6 6.5
5.6 5.4 5.0 4.9 5.0 5.2 5.5 5.6 5.7 5.4 5.4 5.7 5.5 5.3 5.5 5.4 5.3 5.3 5.9 6.3 5.9 5.7 5.3 5.0 4.9 4.8 4.9 4.8 4.7 4.7 4.6 4.6 4.6 4.6 4.6 4.5 4.4 4.5 4.4 4.0 3.8 4.1 4.3 4.6 5.1 5.6 5.9 6.0 6.5 6.6 6.6 6.3 6.6 6.6
5.4 5.4 5.3 5.2 5.3 5.5 5.5 5.8 5.8 5.8 5.9 5.6 5.4 5.5 5.3 5.1 5.3 5.4 6.0 5.7 5.7 5.5 5.0 4.9 4.8 4.8 4.7 4.6 4.7 4.7 4.7 4.5 4.4 4.2 3.9 3.7 3.7 3.6 3.8 3.8 3.6 3.6 3.9 4.3 4.6 5.1 5.8 6.2 6.5 6.6 6.1 6.2 6.3 6.2
5.4 5.3 5.6 5.7 5.7 5.8 5.9 6.0 5.9 6.0 6.0 5.6 5.7 5.5 5.3 5.1 5.6 5.8 5.4 5.2 4.9 4.8 4.8 4.8 4.8 4.9 5.0 5.0 4.8 4.7 4.5 4.2 4.0 3.8 3.7 3.7 3.7 3.5 3.5 4.0 4.3 4.1 4.3 4.5 4.9 5.3 6.0 6.5 6.5 6.3 6.0 6.2 6.2 5.7
5.4 5.6 5.9 5.8 5.9 6.0 5.8 5.7 5.8 5.7 5.6 5.6 5.5 5.5 5.4 5.4 5.7 5.4 5.1 4.9 4.7 4.6 4.6 4.6 4.6 4.7 4.7 4.6 4.7 4.7 4.4 4.1 4.1 4.3 4.5 4.6 4.5 4.4 4.3 4.4 4.7 4.7 4.9 5.1 5.5 5.9 6.5 6.5 6.4 6.3 6.2 6.3 6.2 5.5
5.4 5.9 6.1 6.3 6.2 5.9 5.6 5.7 5.9 5.9 5.9 5.8 5.7 5.8 5.6 5.6 5.1 5.0 5.0 4.8 4.8 4.8 4.8 4.8 4.7 4.5 4.6 4.7 4.7 4.4 4.3 4.4 4.6 5.0 5.1 5.0 5.0 4.7 4.8 4.9 5.3 5.6 5.8 5.7 5.6 6.1 6.4 6.3 6.3 6.3 6.1 6.0 5.5 4.9
5.8 5.9 5.9 6.0 5.9 5.9 6.0 6.0 6.0 5.8 5.8 5.6 5.5 5.7 5.6 5.4 5.3 5.1 5.0 5.0 5.0 4.9 4.9 4.8 4.6 4.6 4.8 4.9 4.8 4.9 4.6 4.8 5.3 5.5 5.4 5.2 5.1 5.2 5.0 5.1 5.7 6.2 6.3 6.1 6.0 6.2 6.0 5.8 5.6 6.0 5.7 5.2 4.7 4.6
6.0 5.9 5.9 5.9 6.0 6.1 6.0 5.8 5.9 5.9 5.7 5.6 5.6 5.6 5.6 5.6 5.6 5.3 5.2 5.1 5.1 5.1 4.9 4.7 4.7 4.8 4.9 4.7 5.0 5.5 6.0 5.7 5.8 5.9 6.0 6.1 5.7 5.6 5.6 5.9 6.3 6.4 6.5 6.1 6.2 5.8 5.8 5.8 5.5 5.4 5.3 4.8 4.4 4.4
6.0 5.9 5.9 5.9 6.1 5.9 5.9 6.0 5.9 6.0 5.9 5.8 5.9 5.7 5.7 5.6 5.5 5.6 5.6 5.5 5.4 5.1 4.9 4.9 5.0 4.9 4.8 5.2 5.6 6.0 6.0 6.2 6.2 6.1 6.1 6.3 6.0 6.0 6.3 6.5 6.6 6.5 6.2 6.3 6.0 6.0 5.7 5.3 5.0 4.8 4.7 4.1 4.2 4.5
5.9 5.9 6.0 5.9 6.1 6.1 6.1 6.0 6.1 6.1 6.2 6.2 6.2 6.0 5.8 5.5 5.4 5.6 5.5 5.4 5.1 5.0 5.0 5.1 5.1 4.9 5.3 5.6 6.1 6.3 6.3 6.1 6.0 6.2 6.2 6.5 6.5 6.2 6.3 6.3 6.3 6.0 6.0 5.9 5.7 5.4 5.1 4.7 4.2 4.2 4.2 4.3 4.4 4.2
Wind_Speed
9 12 16 16 17 19 19 15 17 16 16 17 17 16 16 16 16 8 3 5 2 3 9 7 8 7 1 2 2 3 3 0 2 2 1 1 2 1 2 3 5 6 6 3 3 3 6 0 2 2 3 5 5 4
9 12 15 17 18 19 21 15 17 19 17 16 17 18 16 14 13 11 2 2 1 3 5 6 13 15 10 4 1 3 1 3 1 3 1 2 2 4 5 3 4 3 4 4 7 5 6 4 6 1 3 3 5 4
10 13 15 17 18 19 21 14 19 18 18 17 17 18 18 14 10 9 3 2 0 2 5 5 7 7 3 1 3 2 0 2 3 3 2 1 4 1 2 4 3 5 4 1 3 3 4 4 5 6 4 4 4 4
10 12 16 17 18 20 20 15 16 21 19 19 18 19 18 17 12 9 2 3 2 1 3 3 2 1 3 1 2 2 5 5 4 2 2 2 2 3 2 4 3 4 1 4 5 9 3 6 5 4 5 4 7 6
12 14 16 16 18 19 21 20 16 20 20 20 21 21 19 18 13 9 4 5 5 3 3 4 6 1 1 3 4 3 5 4 2 2 2 3 2 3 3 4 7 4 5 4 4 2 2 2 3 4 6 5 6 7
15 16 16 16 19 20 21 23 16 19 21 22 24 22 21 20 14 2 2 2 1 5 3 3 2 3 1 3 5 3 1 3 2 2 2 2 2 2 3 4 6 8 12 11 8 3 3 5 5 4 6 6 7 7
15 15 17 16 19 19 22 23 18 21 22 23 24 27 23 16 5 3 1 3 7 1 2 3 3 2 3 3 2 2 2 2 2 2 2 2 3 4 3 6 8 12 10 7 4 4 2 4 3 7 8 8 10 8
15 16 16 15 18 19 21 22 21 22 23 23 26 22 13 5 3 3 5 2 2 3 3 2 2 3 3 2 3 2 2 2 3 2 1 2 1 3 4 7 8 10 14 11 7 5 4 7 7 7 7 9 10 9
14 16 15 16 17 19 19 20 21 23 23 26 21 15 1 1 1 1 5 8 8 3 3 1 3 2 2 1 2 1 2 2 3 3 2 2 2 4 6 9 7 6 4 3 6 5 6 6 7 8 8 8 11 10
14 13 14 17 16 20 20 18 21 22 25 16 4 1 0 2 8 3 2 2 3 3 3 2 1 2 2 2 2 3 2 1 0 1 2 2 3 10 10 8 6 7 5 6 3 3 0 1 6 8 7 7 8 10
14 12 14 15 15 18 20 17 17 21 7 2 3 1 2 7 1 2 2 2 2 2 3 2 3 3 1 1 2 2 2 0 1 1 1 2 2 3 7 7 7 8 8 7 7 5 7 7 9 8 7 8 10 11
13 13 14 13 15 16 18 13 16 6 3 3 4 4 2 1 1 2 2 1 3 1 2 1 2 2 1 1 1 0 2 1 3 0 1 2 1 6 10 10 9 8 8 8 4 3 6 7 7 8 7 9 9 10
15 14 15 12 15 15 13 10 13 12 11 1 2 2 1 2 2 3 3 1 1 3 3 3 0 1 1 0 2 1 2 3 1 1 2 3 4 9 10 10 11 8 7 6 5 3 3 6 7 7 10 9 12 11
16 17 13 12 14 15 5 9 11 7 3 1 2 3 2 2 1 1 2 2 2 2 2 2 1 1 1 2 0 2 1 1 1 2 4 2 6 10 9 9 9 9 7 6 6 6 5 7 7 7 9 11 12 12
18 14 11 10 13 8 4 8 6 2 2 2 2 3 3 1 1 1 1 1 1 2 2 1 1 0 1 1 1 1 1 3 4 3 2 4 7 8 9 10 10 9 7 5 3 3 5 6 7 7 7 8 10 11
13 10 5 13 11 2 3 3 1 1 1 2 3 2 1 1 1 1 0 0 1 2 1 1 1 2 3 2 3 5 2 4 2 1 2 5 8 8 9 9 8 7 6 5 4 2 3 5 7 8 7 9 10 11
13 3 6 9 6 4 2 1 0 2 2 2 3 3 1 2 0 1 1 1 1 1 1 1 3 2 1 2 3 4 3 2 3 3 2 5 7 10 8 6 6 6 6 5 2 2 3 5 7 8 9 6 7 9
4 6 11 10 6 2 1 1 1 2 4 3 2 3 3 1 2 2 1 3 1 0 0 1 1 2 3 3 2 2 2 1 2 1 3 6 6 6 6 7 6 6 6 4 3 3 3 3 4 3 8 7 9 9
7 8 7 9 4 2 1 2 1 2 3 2 2 2 0 2 2 1 1 1 2 1 0 2 2 3 1 2 2 1 0 2 4 5 5 7 3 4 5 5 5 4 3 2 1 2 3 3 4 5 6 7 7 7
15 13 10 11 5 2 1 1 1 2 2 2 2 2 2 0 1 2 2 1 1 1 1 3 3 3 2 2 1 1 2 3 4 6 5 3 4 5 3 2 3 4 3 2 1 3 4 4 3 5 5 6 8 8
10 6 12 4 1 2 0 1 2 1 1 2 1 2 2 1 1 1 3 2 3 3 3 3 2 2 3 2 1 2 3 2 2 2 7 8 7 8 8 3 2 3 3 3 3 3 4 3 3 4 7 6 5 6
3 11 2 1 2 2 1 1 1 1 1 1 0 0 1 1 2 2 0 3 3 3 3 2 3 3 2 2 2 1 3 4 5 5 9 8 7 7 7 6 1 3 3 4 3 4 4 4 4 4 6 7 9 8
11 3 2 1 2 2 2 0 3 2 3 2 1 0 2 1 1 1 2 3 3 2 2 2 3 2 3 2 3 4 5 4 4 4 4 4 4 5 8 8 3 3 3 3 2 3 3 10 9 7 8 9 9 9
4 2 4 4 3 2 3 3 2 2 0 2 2 2 2 2 2 2 3 3 3 2 2 3 3 2 1 2 2 3 3 2 2 3 3 3 3 5 5 7 6 4 4 2 3 3 4 5 12 8 9 10 10 10
5 3 4 4 1 3 4 4 3 3 3 3 2 2 2 1 1 3 3 3 2 2 2 3 2 2 3 2 2 3 3 3 2 6 3 2 3 6 5 6 6 4 2 3 4 3 3 7 8 10 9 10 12 13
5 6 9 8 4 5 5 5 6 6 3 3 4 1 1 2 1 6 3 3 3 4 5 7 7 4 5 6 3 2 3 1 1 4 5 4 5 6 7 7 7 7 3 5 5 7 8 8 10 13 12 14 20 14
6 6 4 2 2 3 2 1 2 2 4 5 3 4 3 2 5 4 2 2 3 3 2 3 4 5 4 2 1 1 2 3 5 5 4 4 6 7 7 9 12 7 4 7 7 8 10 11 11 13 13 12 12 11
3 4 7 5 2 1 4 3 5 6 5 3 5 4 7 7 5 3 3 1 3 2 2 1 1 1 2 3 2 2 3 4 4 4 6 8 9 9 10 9 10 20 12 8 8 8 9 10 12 13 14 13 12 10
3 4 4 4 2 3 5 7 4 3 2 4 5 4 4 3 2 2 2 2 2 3 1 2 3 2 2 2 3 4 5 3 3 8 11 8 4 4 4 6 7 7 7 6 15 12 13 11 12 12 14 12 11 11
4 4 4 4 6 6 3 2 1 1 1 1 1 2 2 3 3 1 2 2 2 3 3 3 2 2 3 3 5 5 4 6 7 9 8 8 5 4 3 3 5 6 4 6 6 9 19 14 16 12 13 12 11 11
4 2 3 2 3 1 1 2 2 0 1 1 1 2 3 3 4 1 2 2 3 2 2 2 3 3 4 4 4 6 8 3 6 8 9 7 7 7 6 5 6 4 5 6 8 9 10 11 11 13 15 15 17 14
2 3 4 4 1 1 1 1 0 0 1 1 2 1 3 2 3 3 2 3 2 1 4 3 2 4 4 4 5 7 16 9 8 8 9 7 7 7 7 6 4 4 6 7 9 13 15 14 12 14 16 18 16 16
2 2 2 3 2 2 1 2 2 2 1 1 2 1 2 2 6 3 2 2 3 3 3 3 4 4 6 7 7 7 11 6 10 15 17 17 17 11 4 2 4 7 11 10 11 13 15 18 16 17 19 18 15 14
Wind_Direction
316 315 312 314 312 316 322 327 326 321 322 326 330 334 335 349 354 1 310 64 29 306 288 285 311 316 180 249 210 114 112 251 157 218 278 36 256 257 294 171 184 173 172 187 178 235 270 153 312 218 268 311 336 26
309 312 310 313 312 312 318 329 325 319 316 319 317 318 318 331 343 351 309 23 333 240 279 319 280 275 285 355 122 150 84 144 105 100 133 10 308 325 5 284 326 251 213 172 190 216 238 222 216 344 58 315 328 42
298 305 304 307 313 309 315 326 319 313 312 311 312 311 309 313 322 326 293 286 204 272 279 247 234 227 198 354 322 155 143 94 107 64 110 237 257 296 253 249 320 245 222 207 340 273 258 1 32 61 51 3 338 66
290 297 302 307 308 304 310 313 318 313 311 312 312 306 308 305 306 304 274 271 170 238 266 253 283 160 41 345 35 35 120 72 101 87 135 199 253 198 264 301 275 264 13 239 264 282 314 67 69 39 58 50 65 48
281 288 293 304 306 305 310 317 313 311 309 308 306 304 300 303 302 294 265 243 206 197 298 291 312 150 326 185 144 135 148 136 133 148 179 196 223 245 247 262 253 210 221 203 235 151 163 107 79 26 90 85 99 103
280 284 297 304 308 304 307 312 307 310 308 309 306 304 294 286 285 295 280 65 115 143 258 264 128 135 99 178 145 160 150 82 121 174 200 227 256 168 253 262 234 243 225 234 267 71 75 108 90 73 104 104 95 98
267 280 291 303 308 308 307 314 316 312 311 313 314 309 305 285 239 191 233 99 21 155 241 265 159 111 151 107 77 103 121 134 153 203 212 218 222 183 244 257 254 277 308 334 296 95 247 168 156 118 105 98 101 91
261 273 286 300 310 310 308 316 316 314 316 318 316 314 305 255 179 215 255 180 277 254 254 267 82 145 211 143 141 168 144 154 191 237 187 211 202 210 259 260 273 247 268 280 229 155 115 112 112 111 120 125 115 113
255 271 286 300 306 311 307 316 315 317 321 319 314 298 269 229 115 57 17 156 216 265 288 269 141 152 182 114 92 146 204 187 161 219 223 140 196 232 244 268 293 351 341 351 54 100 139 159 142 144 152 147 134 135
253 269 287 297 305 309 305 316 319 324 325 322 303 308 283 41 316 283 104 223 204 217 223 265 272 109 187 144 174 165 175 269 213 164 113 226 251 268 288 305 343 329 302 142 132 305 316 170 164 173 171 152 146 140
246 265 286 303 304 307 309 319 330 334 326 3 349 335 343 342 264 208 232 228 194 229 207 238 5 123 13 165 118 29 151 35 234 179 245 263 262 35 351 343 334 317 307 286 238 263 187 175 172 167 165 145 145 143
238 259 279 298 297 304 313 323 329 339 322 299 291 280 293 336 271 261 218 227 231 251 22 18 59 33 101 353 96 329 124 70 244 35 234 246 342 350 345 333 325 319 302 296 184 201 197 174 166 155 146 143 141 123
240 254 273 291 297 303 316 322 328 316 295 246 249 300 247 158 251 248 186 160 110 4 350 345 42 2 144 358 81 133 152 222 101 214 242 225 356 347 338 335 337 335 347 28 28 11 117 113 123 135 129 128 125 130
238 254 268 290 297 304 292 322 327 322 286 305 281 278 232 203 196 29 354 17 3 304 339 335 354 101 350 81 158 160 192 47 264 247 239 3 338 333 334 342 349 350 359 15 35 45 80 109 118 119 124 135 139 142
234 250 274 287 283 287 297 318 310 276 270 257 236 242 216 52 66 175 159 326 330 296 306 235 347 21 28 116 123 84 173 239 225 228 358 328 325 330 335 344 349 350 354 10 16 75 103 114 121 120 128 133 135 134
222 261 253 258 257 201 326 305 248 262 262 249 240 257 186 259 167 212 292 333 251 321 292 308 136 145 233 180 179 205 204 224 171 350 303 320 329 329 333 336 336 334 340 4 21 83 120 114 130 127 112 124 134 139
216 201 167 167 142 125 94 95 328 217 249 232 235 235 60 2 125 135 18 74 18 355 58 323 210 185 48 186 228 198 215 61 347 316 299 314 320 329 330 328 334 338 340 6 32 50 93 114 126 125 129 126 116 119
192 175 187 189 148 124 88 80 238 239 241 239 246 224 216 122 209 272 79 31 358 93 100 91 316 242 225 227 224 63 37 319 256 307 286 304 303 332 336 331 329 338 342 9 59 87 80 89 110 111 118 119 111 116
156 152 181 172 156 120 175 180 279 248 224 294 258 248 280 237 352 18 305 308 331 2 131 177 222 221 224 57 72 81 337 325 310 312 298 295 345 344 331 332 321 328 347 339 266 173 156 160 130 130 139 142 136 138
160 166 183 159 162 121 139 196 272 272 229 221 214 218 224 117 39 38 348 284 192 180 243 210 222 162 148 147 173 259 280 304 314 314 308 333 331 327 323 297 301 313 308 347 3 109 106 106 118 142 151 151 146 151
103 93 107 73 42 61 341 182 234 289 356 253 107 219 260 59 175 184 185 169 198 208 235 232 144 131 110 134 198 237 261 266 285 295 300 306 319 318 315 275 257 291 270 245 192 201 189 184 165 156 158 151 141 133
102 98 96 263 103 77 278 58 331 61 243 13 170 233 251 242 197 190 138 201 230 242 199 149 148 135 164 199 204 224 266 291 268 265 284 294 306 315 314 315 288 261 252 240 220 203 177 160 155 140 135 135 129 133
100 97 99 128 107 177 222 215 200 189 213 197 102 287 258 246 121 114 246 229 246 226 124 118 142 151 174 229 201 244 234 228 275 275 290 293 284 287 299 299 273 248 271 261 215 171 159 166 161 141 142 141 140 138
87 99 141 162 179 202 139 188 206 155 42 215 194 253 234 191 154 211 254 241 227 108 130 173 155 183 249 208 238 227 212 183 252 265 249 262 283 286 288 294 290 260 244 240 185 169 176 165 155 161 157 154 153 146
119 181 153 174 215 157 199 175 183 196 227 174 157 259 233 151 153 235 234 262 195 200 191 162 181 200 196 253 271 249 199 164 228 278 260 235 268 284 280 279 272 250 213 195 201 183 183 177 166 158 164 161 157 151
190 180 178 186 179 188 187 167 192 195 154 169 214 157 150 143 133 241 232 219 193 184 189 195 198 195 227 214 233 241 246 156 86 269 273 236 246 259 276 288 294 289 209 210 196 194 190 187 173 164 160 162 164 148
187 180 188 242 169 128 124 45 66 143 173 183 186 170 119 171 237 245 255 227 177 218 189 169 173 194 209 225 274 266 229 200 209 231 256 275 269 263 256 259 261 259 227 212 215 199 191 183 181 171 160 157 158 163
184 149 163 173 154 126 152 181 179 196 198 185 128 177 184 201 232 233 201 223 116 96 75 43 72 150 217 231 232 260 263 249 261 272 274 267 249 248 248 246 249 257 256 222 215 198 186 181 179 172 161 150 147 146
158 142 114 125 134 201 214 193 209 210 153 145 165 207 228 231 235 207 229 155 102 96 75 298 293 235 276 269 235 238 242 225 231 257 261 270 281 272 245 232 242 251 244 212 222 188 172 168 167 164 149 145 140 134
153 163 119 165 177 212 208 143 162 279 17 108 298 320 304 274 247 156 130 133 151 200 210 198 204 147 246 251 277 270 236 230 222 234 254 259 247 256 279 259 268 256 206 193 181 168 171 163 153 138 131 131 132 130
121 111 111 146 202 78 53 333 310 188 45 1 0 181 255 300 305 242 162 175 150 123 109 288 281 231 230 251 251 285 295 261 243 245 245 257 263 263 267 263 270 226 184 164 154 162 154 133 137 138 133 131 137 132
136 153 139 150 227 295 8 18 148 182 348 354 262 18 323 355 282 274 202 119 117 166 239 213 222 263 240 247 260 258 264 271 266 257 249 254 256 257 259 248 231 181 152 137 125 130 135 136 139 138 129 125 128 126
83 66 65 103 103 151 210 104 37 329 322 275 271 201 236 211 243 270 274 193 170 179 209 230 244 257 263 270 274 287 302 270 262 273 268 258 247 236 208 174 136 131 130 130 136 137 137 137 138 135 126 126 126 122